This demonstration page uses our WeatherBlox Daily Observations layout. Learn more.

Left ArrowRight Arrow

36.17497, -115.13722

Hourly Observations for October 13, 2021

Temp ( °F °C ) Dew Point ( °F °C ) Humidity (%) Winds ( mph kmh ) Pressure ( in mb ) Visibility ( mi km ) Precip ( " mm )
12:53 am 00:53 Clear with Blowing Dust 54 12.2 29 -1.7 38 38 NNW 9 15 29.97 1015 10 16 0.00 0.00
1:53 am 01:53 Clear with Blowing Dust 54 12.2 29 -1.7 38 38 NNW 10 17 29.98 1015 10 16 0.00 0.00
2:53 am 02:53 Clear with Blowing Dust 53 11.7 28 -2.2 38 38 NW 10 17 29.97 1015 10 16 0.00 0.00
3:53 am 03:53 Clear with Blowing Dust 52 11.1 29 -1.7 41 41 NW 9 15 29.97 1015 10 16 0.00 0.00
4:53 am 04:53 Clear with Blowing Dust 51 10.6 29 -1.7 43 43 NNW 10 17 29.99 1016 10 16 0.00 0.00
5:53 am 05:53 Clear with Blowing Dust 51 10.6 28 -2.2 41 41 NNW 15 24 30.00 1016 10 16 0.00 0.00
6:53 am 06:53 Sunny with Blowing Dust 50 10 27 -2.8 41 41 NNW 12 19 30.01 1016 10 16 0.00 0.00
7:53 am 07:53 Sunny with Blowing Dust 53 11.7 27 -2.8 37 37 WNW 12 19 30.03 1017 10 16 0.00 0.00
8:53 am 08:53 Sunny with Blowing Dust 56 13.3 26 -3.3 32 32 NNW 10 17 30.04 1017 10 16 0.00 0.00
9:53 am 09:53 Sunny with Blowing Dust 60 15.6 25 -3.9 26 26 N 7 11 30.03 1017 10 16 0.00 0.00
10:53 am 10:53 Sunny with Blowing Dust 61 16.1 24 -4.4 24 24 NW 7 11 30.03 1017 10 16 0.00 0.00
11:53 am 11:53 Sunny with Blowing Dust 64 17.8 24 -4.4 22 22 NW 8 13 30.01 1016 10 16 0.00 0.00
12:53 pm 12:53 Sunny with Blowing Dust 64 17.8 24 -4.4 22 22 VRB 3 6 29.98 1015 10 16 0.00 0.00
1:53 pm 13:53 Sunny 65 18.3 22 -5.6 19 19 SSW 3 6 29.95 1014 10 16 0.00 0.00
2:53 pm 14:53 Sunny 68 20 25 -3.9 20 20 Calm 29.93 1013 10 16 0.00 0.00
3:53 pm 15:53 Sunny 66 18.9 25 -3.9 21 21 S 3 6 29.92 1013 10 16 0.00 0.00
4:53 pm 16:53 Sunny 67 19.4 25 -3.9 20 20 E 5 7 29.92 1013 10 16 0.00 0.00
5:53 pm 17:53 Sunny 66 18.9 24 -4.4 20 20 Calm 29.91 1013 10 16 0.00 0.00
6:53 pm 18:53 Clear 65 18.3 24 -4.4 21 21 ENE 3 6 29.91 1013 10 16 0.00 0.00
7:53 pm 19:53 Clear 63 17.2 24 -4.4 23 23 SSE 3 6 29.93 1014 10 16 0.00 0.00
8:53 pm 20:53 Clear 61 16.1 25 -3.9 25 25 WNW 3 6 29.95 1014 10 16 0.00 0.00
9:53 pm 21:53 Clear 59 15 28 -2.2 31 31 WNW 5 7 29.96 1015 10 16 0.00 0.00
10:53 pm 22:53 Clear 56 13.3 29 -1.7 36 36 NNW 6 9 29.97 1015 10 16 0.00 0.00
11:53 pm 23:53 Clear 56 13.3 28 -2.2 34 34 W 5 7 29.97 1015 10 16 0.00 0.00

Powered by AerisWeather